This is the latest recevied weather packets stored in our database for station/object NK0Z-13. If no packets are shown the sender has not sent any weather packets the latest 10 day(s).
| Time | Temp. | Humidity | Pressure | Rain* | Wind** | Luminosity | Snow |
|---|---|---|---|---|---|---|---|
| 1777860134 | 21.67° C | 35% | 1008.7 hPa | 0 mm | - | 0 W/m² | - |
| 1777859532 | 22.22° C | 32% | 1008.6 hPa | 0 mm | - | 0 W/m² | - |
| 1777858931 | 22.22° C | 31% | 1008.5 hPa | 0 mm | - | 0 W/m² | - |
| 1777858332 | 22.78° C | 29% | 1008.3 hPa | 0 mm | - | 1 W/m² | - |
| 1777857726 | 24.44° C | 27% | 1008.5 hPa | 0 mm | - | 3 W/m² | - |
| 1777857125 | 25.56° C | 24% | 1008.6 hPa | 0 mm | - | 9 W/m² | - |
| 1777856523 | 25.56° C | 24% | 1008.4 hPa | 0 mm | - | 17 W/m² | - |
| 1777855923 | 26.11° C | 24% | 1008.7 hPa | 0 mm | - | 26 W/m² | - |
| 1777855317 | 26.67° C | 23% | 1008.5 hPa | 0 mm | - | 38 W/m² | - |
| 1777854717 | 26.67° C | 22% | 1008.9 hPa | 0 mm | - | 44 W/m² | - |
| 1777854116 | 27.22° C | 22% | 1009 hPa | 0 mm | - | 57 W/m² | - |
| 1777853516 | 27.78° C | 22% | 1008.8 hPa | 0 mm | - | 61 W/m² | - |
| 1777852916 | 28.33° C | 21% | 1009.4 hPa | 0 mm | - | 79 W/m² | - |
| 1777852311 | 28.89° C | 19% | 1009.4 hPa | 0 mm | - | 133 W/m² | - |
| 1777851707 | 28.89° C | 19% | 1009.4 hPa | 0 mm | - | 190 W/m² | - |
| 1777851105 | 28.89° C | 18% | 1009.6 hPa | 0 mm | - | 134 W/m² | - |
| 1777850505 | 29.44° C | 18% | 1009.7 hPa | 0 mm | - | 292 W/m² | - |
| 1777849905 | 30° C | 18% | 1009.7 hPa | 0 mm | - | 171 W/m² | - |
| 1777849305 | 30° C | 18% | 1010 hPa | 0 mm | - | 378 W/m² | - |
| 1777848702 | 30° C | 19% | 1009.7 hPa | 0 mm | - | 309 W/m² | - |
| 1777848097 | 29.44° C | 18% | 1009.9 hPa | 0 mm | - | 260 W/m² | - |
| 1777847497 | 30° C | 19% | 1009.9 hPa | 0 mm | - | 264 W/m² | - |
| 1777846892 | 30° C | 18% | 1009.9 hPa | 0 mm | - | 263 W/m² | - |
| 1777846287 | 30.56° C | 16% | 1010 hPa | 0 mm | - | 329 W/m² | - |
| 1777845686 | 30.56° C | 18% | 1010.2 hPa | 0 mm | - | 333 W/m² | - |
* Rain latest hour (hover to see other rain measurements)
** Current wind speed in m/s (hover to see current wind gust speed)